RH
38 25 18 18 19 20 19 20 20 21 21 21 22 21 22 21 22 21 21 22 21 26 23 22 23 20 53 83 81 80 78 76 76 74 75 74 73 74 74 74 75 82 86 84 82 81 81 82 87 85 57 28
32 24 20 19 19 20 19 20 20 21 22 23 24 23 24 23 23 22 23 24 22 24 22 23 22 19 43 70 76 80 81 81 82 80 80 78 74 76 76 74 76 84 86 80 76 71 71 77 78 66 40 25
21 21 20 20 21 21 20 21 21 22 23 24 25 25 26 25 25 24 24 24 24 25 24 24 24 23 31 52 69 73 73 71 72 76 81 81 80 81 80 80 83 85 81 72 65 52 49 53 48 34 25 26
18 18 19 21 22 22 22 22 22 23 24 25 26 27 27 27 26 26 26 25 25 26 26 26 26 26 25 39 58 60 55 47 44 52 64 75 81 83 84 85 81 75 68 58 47 31 27 27 22 19 20 24
18 17 20 21 22 23 23 23 23 24 25 25 26 27 28 28 28 28 28 27 26 27 27 27 27 28 26 31 41 41 36 29 26 32 44 51 52 54 59 57 46 40 38 33 29 23 22 20 19 20 19 20
18 18 20 21 22 23 22 23 23 23 24 25 26 26 28 29 29 29 29 29 28 28 28 29 29 29 29 29 30 29 27 26 25 25 29 27 20 21 23 22 17 18 21 22 26 27 25 23 23 22 20 20
18 19 21 21 22 23 23 23 23 23 24 24 26 26 28 29 30 30 31 30 29 29 29 30 30 30 30 30 30 29 29 28 27 26 26 22 17 15 13 13 14 16 17 20 25 28 30 27 26 24 22 21
19 20 21 22 23 23 23 23 23 24 23 25 25 26 27 29 31 31 32 32 31 30 30 31 31 31 31 31 31 30 30 29 29 28 27 26 23 20 16 14 14 15 16 18 20 24 28 28 27 26 24 22
19 20 21 23 23 23 24 24 24 24 24 25 25 27 28 30 32 32 33 32 32 31 31 31 31 32 32 32 32 31 32 31 30 30 29 28 26 24 21 18 15 15 16 16 17 18 21 24 25 25 24 23
20 21 22 23 24 24 24 24 25 24 25 25 26 28 28 30 33 33 34 33 33 32 32 32 32 33 33 33 33 32 32 32 31 31 31 30 28 27 25 22 19 16 17 17 17 17 18 19 21 22 24 23
21 22 23 24 26 25 26 26 26 26 26 27 28 29 29 32 34 34 35 35 34 33 32 33 33 33 33 33 33 33 33 33 32 32 32 31 30 29 28 26 23 20 18 18 18 17 17 17 18 19 20 22
25 26 27 27 28 27 28 28 28 28 28 29 29 30 32 33 35 36 36 36 35 34 34 34 34 34 34 34 34 34 34 33 33 33 33 32 31 30 29 28 27 25 21 19 20 19 18 17 17 18 18 19
29 29 30 30 31 31 31 32 32 32 32 33 33 34 35 36 38 38 37 37 36 35 35 34 35 35 34 35 34 34 34 34 34 34 34 33 33 32 30 30 28 27 25 22 21 20 20 19 19 18 17 17
31 30 31 31 32 32 33 34 35 35 35 36 36 37 38 39 39 38 38 37 36 36 36 35 35 35 35 35 35 35 34 34 35 34 34 34 33 33 31 31 30 29 28 26 24 23 22 22 21 20 18 17
31 31 32 32 33 34 34 34 33 34 35 36 36 37 38 38 37 37 37 36 36 36 36 36 36 36 36 35 35 35 35 35 35 35 35 34 34 33 33 32 31 31 30 29 27 26 25 25 24 23 20 18
32 32 33 33 34 34 35 35 35 35 34 35 35 35 35 35 36 36 35 35 36 36 36 36 36 36 36 35 35 35 36 35 35 35 35 35 34 34 34 33 32 31 31 31 29 28 28 27 26 25 24 21
30 31 32 32 32 32 32 33 33 34 34 35 34 34 34 34 34 34 35 35 36 36 36 35 35 35 33 33 34 34 35 35 35 35 35 34 34 34 34 34 32 32 32 32 31 30 29 29 28 27 26 24
31 33 34 35 36 36 35 34 33 32 31 31 31 31 31 31 30 30 32 33 34 35 34 33 32 31 30 31 33 34 34 35 35 35 35 34 35 35 34 34 33 33 33 32 32 32 31 31 30 29 28 26
36 37 39 40 40 40 40 40 38 36 34 32 31 31 32 31 31 30 31 31 31 32 31 31 31 32 33 32 31 32 33 35 35 34 35 35 35 35 35 35 34 34 34 34 33 33 33 32 31 31 29 26
39 40 41 41 42 42 43 43 43 42 41 39 38 38 37 36 36 35 34 34 32 32 32 33 34 36 37 36 34 32 32 33 34 35 35 35 36 36 35 35 35 35 35 34 34 34 34 34 33 33 31 28
42 42 43 44 44 43 41 39 39 41 42 43 43 42 41 39 39 39 38 37 36 35 34 34 35 36 37 38 38 36 34 33 32 34 35 35 35 37 37 37 36 35 35 35 36 35 35 34 34 34 34 32
41 39 38 38 37 33 27 23 24 26 29 33 38 42 44 43 41 41 41 40 40 38 37 37 37 37 38 38 39 39 38 35 34 33 34 35 34 36 39 38 38 37 36 38 38 38 35 34 35 35 34 34
31 26 25 25 24 22 20 19 18 18 17 18 22 29 38 44 45 44 43 43 43 42 41 40 39 39 39 39 40 40 39 38 37 33 33 35 34 36 38 39 39 38 40 44 44 42 37 35 36 35 34 34
24 23 23 23 22 23 22 21 21 20 18 17 15 17 26 37 44 45 46 46 47 47 45 43 41 40 40 39 40 40 40 40 39 35 33 33 34 35 37 39 37 38 45 50 48 43 39 39 39 37 34 33
27 27 28 29 29 29 28 26 26 24 21 21 20 21 28 37 42 46 48 50 52 52 51 49 46 44 42 40 39 40 41 41 39 37 34 33 35 35 39 40 35 39 48 53 52 46 44 44 40 37 37 36
33 34 35 36 36 35 35 32 32 33 30 32 34 33 38 44 48 51 53 55 56 55 54 54 53 51 49 45 41 40 40 40 40 38 36 34 35 36 41 42 36 40 50 53 52 50 53 52 43 42 42 40
38 39 39 39 39 38 38 35 35 37 38 43 49 48 47 48 49 51 53 54 55 56 56 56 56 55 55 53 49 45 42 41 40 39 38 36 36 39 45 45 39 40 48 51 50 55 65 61 52 50 46 42
40 41 39 38 36 35 35 33 32 34 39 49 57 57 55 49 47 50 53 56 57 58 58 57 58 58 57 56 55 52 49 46 43 41 39 37 37 41 48 49 43 41 44 48 50 59 69 68 67 64 50 43
42 42 40 38 35 33 33 34 36 42 50 58 61 60 59 57 57 61 62 62 62 62 63 63 63 63 62 61 59 57 56 53 50 46 44 41 38 40 45 46 46 46 45 45 48 53 59 66 78 74 52 47
44 43 43 41 39 40 42 45 49 56 61 63 62 63 64 66 68 68 69 68 69 68 68 68 66 66 65 63 63 62 61 58 56 53 49 46 42 40 41 43 50 51 45 46 51 51 50 53 62 60 53 57
44 43 40 37 37 42 47 52 57 60 63 63 64 67 70 73 72 72 73 71 70 69 67 66 65 65 63 61 60 61 63 63 60 58 55 52 49 44 41 44 52 51 45 50 54 51 50 51 51 51 55 62
Wind_Speed
3 4 4 4 5 5 6 7 8 9 11 11 11 11 12 12 12 13 13 13 14 14 15 15 15 15 14 14 14 13 14 13 13 13 13 13 12 13 13 13 13 12 10 11 14 14 13 13 11 12 19 22
5 5 6 6 6 7 7 8 9 10 11 12 12 12 13 13 13 13 14 14 14 14 15 16 16 16 16 15 15 14 14 14 13 13 13 13 12 13 13 12 12 10 10 13 14 15 14 14 12 15 20 22
6 6 8 8 8 8 9 9 10 10 11 12 13 13 13 14 14 14 14 15 15 15 15 16 17 17 16 15 15 15 15 15 14 14 13 13 13 13 13 12 11 11 12 14 16 17 17 16 16 19 21 22
8 8 8 9 9 10 10 10 11 11 12 12 13 14 14 15 15 15 15 15 16 16 16 17 17 17 17 17 16 16 16 16 16 15 14 14 13 13 13 12 13 15 16 17 18 19 20 19 20 21 22 23
10 10 10 9 10 10 11 12 12 12 13 13 14 15 15 16 16 16 17 16 16 17 17 17 18 18 18 18 17 17 18 18 18 17 16 16 15 15 14 15 17 18 19 19 19 19 20 21 21 22 23 24
11 11 11 10 10 11 12 12 13 14 14 15 15 15 16 17 17 17 18 17 17 18 18 18 18 19 19 19 19 19 19 19 19 19 18 18 18 18 17 18 19 19 19 19 19 19 20 21 21 22 23 24
13 12 12 11 11 12 12 13 14 14 15 16 16 16 16 17 17 18 18 18 18 18 19 19 19 19 19 20 20 20 20 19 19 20 19 20 20 20 20 20 20 20 20 20 20 20 21 21 22 23 23 24
14 13 13 13 13 13 13 14 15 15 16 16 17 17 17 17 18 18 18 19 18 19 19 19 19 19 20 20 21 21 21 21 20 21 21 20 20 21 21 21 22 22 22 21 22 22 22 23 23 23 24 24
15 15 15 14 14 15 15 16 16 16 17 17 17 17 17 18 18 18 18 19 19 19 19 20 20 20 20 21 22 22 22 22 22 22 22 22 22 22 22 23 23 23 23 23 23 23 24 24 24 24 24 24
17 17 17 17 17 17 17 17 17 17 18 18 18 18 18 18 19 19 19 19 19 19 19 20 20 20 21 21 22 23 23 23 22 23 23 24 23 23 23 24 24 24 24 24 24 25 25 25 25 25 25 25
19 19 19 18 18 18 18 19 19 18 19 19 19 18 19 19 19 19 19 19 19 19 19 20 20 20 21 22 22 23 23 23 23 23 24 24 24 24 24 24 24 24 24 25 25 25 25 25 26 26 26 26
16 16 15 16 16 17 18 18 18 19 19 19 19 18 18 19 19 19 19 19 19 19 19 19 20 20 21 21 22 23 23 24 23 23 24 24 25 25 25 25 24 25 24 25 25 26 26 26 26 27 27 27
8 9 9 10 11 12 13 14 15 16 16 16 17 16 17 18 18 18 18 18 18 19 19 19 20 20 21 21 22 23 23 23 24 24 24 25 25 25 26 26 25 25 25 25 26 26 27 27 27 27 27 28
7 8 7 8 8 9 9 10 11 11 12 12 13 13 14 15 16 16 17 17 17 18 18 19 19 20 20 21 21 22 23 22 23 24 24 25 25 26 26 26 26 26 27 26 26 26 27 27 27 28 28 28
9 9 9 9 9 10 10 10 10 10 9 9 9 10 11 12 13 15 15 16 16 17 18 18 19 19 20 21 20 21 23 22 23 24 24 25 25 26 26 27 26 26 28 27 27 27 27 28 28 28 29 29
11 11 11 12 12 12 12 12 11 10 9 8 8 8 9 10 11 12 13 14 14 15 16 17 18 19 19 20 20 20 22 22 22 23 24 24 25 25 26 27 26 26 28 28 27 27 28 28 29 29 29 30
15 15 15 16 16 16 15 15 13 12 11 10 10 10 10 11 12 13 14 14 14 14 14 16 17 18 19 19 19 19 20 21 22 23 24 24 24 25 26 27 27 26 27 28 28 27 28 29 29 30 30 30
18 19 19 19 19 19 19 19 18 16 14 13 12 12 13 13 14 14 14 14 14 14 14 15 16 17 18 18 18 19 19 20 21 22 23 23 25 25 26 27 27 27 28 29 29 28 28 29 30 30 30 30
19 19 19 19 19 19 20 20 20 19 17 16 15 15 15 14 15 15 15 15 15 15 15 15 16 17 17 17 18 18 19 19 20 21 22 23 24 26 26 27 27 28 29 30 30 30 30 30 30 31 31 30
18 17 17 18 18 19 19 20 20 19 19 18 17 17 17 16 17 17 16 17 16 16 16 16 17 17 17 17 18 19 19 19 20 21 22 22 23 25 26 26 27 28 29 30 31 31 31 31 31 31 31 31
16 16 16 17 18 19 19 20 20 20 20 20 20 20 20 19 19 19 19 18 18 18 18 18 19 19 18 18 18 19 19 20 20 21 22 22 21 24 25 26 27 28 28 29 30 31 32 31 32 32 31 30
15 15 15 15 17 17 18 20 20 21 21 21 21 21 22 22 22 21 21 21 21 21 20 20 20 20 20 19 19 19 20 20 21 21 21 22 22 22 24 25 27 28 28 29 30 31 32 32 32 31 30 30
15 16 16 17 18 18 19 19 19 20 20 21 21 21 21 22 23 24 24 24 25 25 25 24 24 23 22 21 21 21 21 20 21 21 20 21 22 22 24 24 26 27 27 27 28 29 32 31 30 30 30 30
19 20 21 21 22 22 22 21 21 21 20 19 20 20 21 21 22 23 24 24 26 27 28 28 28 27 25 24 24 24 23 22 21 21 21 21 22 23 24 24 25 25 24 24 26 29 29 27 27 30 28 24
23 24 24 23 24 24 24 24 24 24 23 21 20 19 20 21 20 21 22 23 24 24 26 27 28 29 29 28 28 27 26 25 23 22 23 23 22 23 23 23 23 22 20 18 19 22 22 24 27 24 19 19
25 25 24 23 24 25 25 25 26 25 24 23 21 21 21 21 21 21 22 22 23 24 24 25 26 27 28 29 31 31 30 29 27 25 24 24 24 23 22 22 22 21 16 12 12 13 13 18 20 15 13 16
26 25 25 25 26 26 26 27 27 26 25 24 24 24 23 22 23 23 24 23 23 24 24 25 26 26 26 27 29 32 33 32 31 29 27 26 26 24 21 20 21 21 16 12 12 10 6 6 9 9 8 7
28 27 29 29 30 29 28 29 30 29 27 26 26 26 25 25 24 24 24 23 23 23 24 24 25 26 26 26 26 29 32 33 33 32 31 29 28 24 21 20 19 18 16 14 10 5 2 2 4 5 4 7
29 30 31 33 34 33 32 31 30 28 28 28 27 27 26 26 24 23 23 22 22 23 23 24 24 25 26 27 26 27 29 31 32 33 33 32 31 27 24 23 19 17 17 17 14 8 5 2 2 2 5 11
30 31 31 32 32 30 29 27 25 25 26 28 27 27 27 25 23 22 21 21 21 22 23 24 25 25 27 27 28 28 29 30 31 32 33 34 34 32 29 26 21 19 20 20 17 15 14 12 10 8 7 7
31 31 31 30 27 25 24 24 24 24 25 26 26 26 25 23 22 20 21 22 23 23 24 25 26 27 28 29 29 29 30 30 31 31 32 33 34 34 32 27 23 23 23 19 16 18 20 21 21 19 12 6
Wind_Direction
235 286 319 331 333 337 346 357 1 3 3 2 2 3 3 4 5 7 10 11 11 11 8 9 10 9 8 5 3 2 358 354 353 348 345 343 340 341 340 338 334 334 335 335 339 343 346 348 352 334 323 333
249 283 309 320 323 329 336 345 349 351 353 354 355 355 355 357 358 358 0 2 4 4 3 4 4 7 6 1 359 358 356 354 352 350 349 345 341 339 338 339 331 326 331 331 333 334 336 339 332 319 322 332
272 289 303 313 320 327 332 337 340 340 341 343 345 348 348 349 351 352 351 354 357 357 357 358 359 2 2 359 356 354 353 350 348 348 348 345 342 338 338 340 322 303 313 321 322 322 323 321 315 316 325 332
282 292 298 305 312 319 326 328 329 330 330 332 337 340 341 341 344 346 345 345 348 351 351 352 354 356 357 356 353 350 348 346 345 344 342 341 338 335 337 330 304 295 304 309 312 315 315 314 315 321 326 330
284 292 296 299 303 311 317 319 320 321 323 325 329 332 335 336 337 340 340 340 341 344 346 347 349 350 352 351 348 346 344 343 342 342 339 335 330 325 321 310 302 302 305 307 311 314 316 317 319 323 325 327
284 291 295 299 302 307 310 313 314 314 317 319 323 326 330 332 333 335 335 336 336 338 341 342 344 345 345 344 343 342 340 340 339 339 337 333 330 325 318 311 311 312 312 313 316 318 319 320 321 322 324 326
284 289 294 299 302 307 308 309 309 310 313 313 317 320 324 328 328 329 330 332 332 333 335 337 339 339 339 339 340 339 337 336 336 336 334 332 330 328 325 321 320 318 318 319 319 321 321 321 321 322 323 325
282 288 295 299 301 305 305 306 306 307 309 309 312 315 318 322 323 323 325 328 328 329 330 332 335 335 334 335 336 336 334 334 333 333 331 330 329 328 328 326 324 322 320 320 319 320 321 321 322 321 322 323
283 289 293 299 301 302 303 303 303 305 306 307 308 310 312 314 317 318 320 323 324 325 325 326 330 331 331 331 334 334 332 333 332 331 331 329 328 328 328 327 326 324 322 320 320 319 320 321 321 321 322 322
281 285 289 295 297 298 301 300 300 303 303 304 305 306 307 310 314 315 316 319 320 322 321 322 326 328 328 328 331 331 329 331 332 331 330 329 328 327 326 326 325 324 323 321 319 319 319 320 320 321 321 321
280 284 289 294 296 298 300 299 300 302 302 302 303 304 305 307 311 313 314 315 317 320 318 319 323 324 324 325 328 328 326 328 330 330 329 328 327 326 325 324 323 323 322 321 320 319 319 319 319 320 320 320
292 296 302 307 308 309 309 307 306 305 304 304 304 305 305 307 310 312 313 314 316 317 315 317 320 321 322 323 325 325 324 326 326 327 327 326 326 325 324 323 322 322 321 321 321 319 319 319 319 319 318 318
330 334 337 334 330 328 324 320 317 314 312 310 310 309 309 309 312 314 314 314 316 314 313 316 318 318 320 321 323 322 322 324 323 324 325 324 325 324 323 323 323 322 320 320 320 320 319 319 319 318 317 317
32 21 11 2 355 350 344 337 331 326 322 320 318 317 316 315 315 317 317 317 318 315 314 317 317 318 319 319 321 321 321 323 321 321 322 322 323 323 323 322 323 322 321 319 319 319 319 318 318 317 316 316
38 31 23 16 10 4 358 351 346 340 336 332 330 328 325 323 322 322 321 321 321 318 316 317 317 318 318 319 321 321 319 321 319 318 318 319 320 320 320 321 321 322 321 319 318 318 318 318 317 316 316 314
38 32 25 20 13 7 1 355 351 347 345 343 341 338 334 332 329 326 325 323 322 319 319 318 318 319 318 319 321 320 318 318 317 316 315 317 317 317 317 317 319 321 319 318 319 318 317 317 316 315 315 312
44 39 33 29 24 20 14 8 2 356 351 347 343 340 335 332 328 325 323 320 318 317 317 318 318 318 317 318 319 318 316 315 315 314 313 315 315 315 315 314 317 318 317 318 319 318 317 317 315 314 313 311
48 43 39 35 31 28 23 19 14 9 4 359 355 351 346 341 337 334 330 325 321 319 316 316 318 319 320 320 318 314 313 312 312 311 311 313 313 312 313 312 315 316 315 317 318 319 319 317 315 315 312 310
47 42 38 33 29 25 20 17 14 10 7 3 360 357 354 349 346 344 341 336 330 325 321 319 319 323 327 326 320 315 313 309 308 308 309 310 310 309 311 311 312 313 313 315 316 317 318 316 316 315 313 311
43 37 31 26 21 17 12 8 5 2 359 355 351 348 347 344 342 339 337 335 330 327 324 320 319 321 325 325 322 319 315 310 306 306 306 306 306 305 307 308 309 310 310 311 313 314 314 315 315 315 314 312
38 30 23 17 12 6 1 358 355 351 347 345 341 337 336 334 334 332 329 326 322 321 319 316 314 315 318 317 316 317 315 313 310 305 303 303 304 302 302 304 304 306 308 308 309 311 311 313 314 314 313 312
36 28 21 15 9 2 358 358 356 351 344 340 334 329 328 326 324 324 324 321 315 311 310 309 307 308 310 308 307 308 309 312 311 307 302 300 301 299 297 299 300 302 304 304 305 307 309 310 312 312 312 312
35 28 23 18 13 7 6 5 2 359 352 344 335 326 323 319 317 316 316 316 313 308 304 301 301 301 302 301 300 299 301 304 306 305 301 298 299 298 296 296 297 299 300 301 302 303 306 309 310 311 312 312
31 26 21 16 12 6 5 3 0 0 357 351 342 330 321 316 314 313 313 313 312 309 305 300 297 296 295 294 293 293 294 297 298 299 297 296 295 295 293 293 296 298 297 298 300 301 304 307 309 310 312 311
29 24 18 11 7 2 359 358 356 355 353 350 344 335 325 321 319 317 317 315 314 314 311 307 303 298 295 292 289 289 291 292 292 291 291 290 288 288 288 289 296 297 296 299 301 304 306 307 309 311 313 310
24 20 15 8 3 359 355 354 352 348 347 346 341 337 332 328 326 325 323 321 321 320 318 316 312 307 302 296 291 288 288 288 287 286 286 284 281 282 280 282 290 290 288 290 294 305 310 310 314 316 312 308
19 14 11 5 1 357 352 350 348 344 342 342 339 338 336 333 331 329 327 326 326 324 323 322 320 316 312 306 298 291 288 286 285 284 284 281 277 276 273 275 283 283 277 271 282 302 305 309 324 322 313 304
13 8 4 360 357 354 350 346 344 342 341 340 338 336 336 335 334 332 331 330 329 328 328 327 325 324 319 314 309 299 292 288 286 285 283 281 276 270 265 265 272 276 273 267 269 282 278 312 329 304 307 313
8 4 1 357 354 351 348 345 344 342 339 338 337 335 335 338 339 338 336 335 334 333 332 331 330 329 326 322 317 309 301 294 290 287 283 280 276 269 262 261 263 265 268 268 258 239 242 296 320 263 312 320
6 3 1 357 354 350 346 343 342 341 337 335 335 334 336 340 343 343 341 339 336 334 333 332 330 330 329 326 322 317 309 301 295 290 286 283 276 270 266 261 256 256 264 268 258 248 249 251 251 262 306 327
4 1 358 356 353 350 346 340 337 337 335 334 334 336 339 342 344 342 339 336 334 332 330 329 328 327 326 325 324 322 314 305 299 295 291 286 278 272 268 258 249 251 258 259 255 255 255 252 250 255 265 266